Time,TemperatureF,DewpointF,PressureIn,WindDirection,WindDirectionDegrees,WindSpeedMPH,WindSpeedGustMPH,Humidity,HourlyPrecipIn,Conditions,Clouds,dailyrainin,SoftwareType,DateUTC
2016-08-26 00:01:00,49.7,45.3,30.20,North,0,0.0,0.0,85,0.00,,,0.00,WUHU216HW,2016-08-26 06:01:00,
2016-08-26 00:06:00,49.7,45.3,30.19,North,0,0.0,0.0,85,0.00,,,0.00,WUHU216HW,2016-08-26 06:06:00,
2016-08-26 00:11:00,49.7,45.3,30.19,North,0,0.0,0.0,85,0.00,,,0.00,WUHU216HW,2016-08-26 06:11:00,
2016-08-26 00:16:00,49.5,44.8,30.18,North,0,0.0,0.0,84,0.00,,,0.00,WUHU216HW,2016-08-26 06:16:00,
2016-08-26 00:21:00,49.5,44.8,30.18,North,0,0.0,0.0,84,0.00,,,0.00,WUHU216HW,2016-08-26 06:21:00,
2016-08-26 00:26:00,49.5,44.8,30.18,North,0,0.0,0.0,84,0.00,,,0.00,WUHU216HW,2016-08-26 06:26:00,
2016-08-26 00:31:00,49.5,44.8,30.18,North,0,0.0,0.0,84,0.00,,,0.00,WUHU216HW,2016-08-26 06:31:00,
2016-08-26 00:36:00,49.5,44.8,30.18,North,0,0.0,0.0,84,0.00,,,0.00,WUHU216HW,2016-08-26 06:36:00,
2016-08-26 00:41:00,49.7,45.0,30.18,North,0,0.0,0.0,84,0.00,,,0.00,WUHU216HW,2016-08-26 06:41:00,
2016-08-26 00:46:00,50.0,45.4,30.18,North,0,0.0,0.0,84,0.00,,,0.00,WUHU216HW,2016-08-26 06:46:00,
2016-08-26 00:51:00,50.0,45.4,30.18,North,0,0.0,0.0,84,0.00,,,0.00,WUHU216HW,2016-08-26 06:51:00,
2016-08-26 00:56:00,50.0,45.4,30.18,North,0,0.0,0.0,84,0.00,,,0.00,WUHU216HW,2016-08-26 06:56:00,
2016-08-26 01:01:00,50.0,45.4,30.18,North,0,0.0,0.0,84,0.00,,,0.00,WUHU216HW,2016-08-26 07:01:00,
2016-08-26 01:06:00,50.0,45.4,30.18,North,0,0.0,0.0,84,0.00,,,0.00,WUHU216HW,2016-08-26 07:06:00,
2016-08-26 01:11:00,49.9,45.2,30.18,North,0,0.0,0.0,84,0.00,,,0.00,WUHU216HW,2016-08-26 07:11:00,
2016-08-26 01:16:00,49.5,44.5,30.18,North,0,0.0,0.0,83,0.00,,,0.00,WUHU216HW,2016-08-26 07:16:00,
2016-08-26 01:21:00,49.1,44.1,30.17,North,0,0.0,0.0,83,0.00,,,0.00,WUHU216HW,2016-08-26 07:21:00,
2016-08-26 01:26:00,48.6,43.7,30.18,North,0,0.0,0.0,83,0.00,,,0.00,WUHU216HW,2016-08-26 07:26:00,
2016-08-26 01:31:00,48.4,44.1,30.18,North,0,0.0,0.0,85,0.00,,,0.00,WUHU216HW,2016-08-26 07:31:00,
2016-08-26 01:36:00,48.4,44.1,30.17,North,0,0.0,0.0,85,0.00,,,0.00,WUHU216HW,2016-08-26 07:36:00,
2016-08-26 01:41:00,48.4,44.4,30.16,North,0,0.0,0.0,86,0.00,,,0.00,WUHU216HW,2016-08-26 07:41:00,
2016-08-26 01:46:00,48.2,44.3,30.16,North,0,0.0,0.0,86,0.00,,,0.00,WUHU216HW,2016-08-26 07:46:00,
2016-08-26 01:56:00,48.2,44.3,30.16,North,0,0.0,0.0,86,0.00,,,0.00,WUHU216HW,2016-08-26 07:56:00,
2016-08-26 02:01:00,48.2,44.3,30.16,North,0,0.0,0.0,86,0.00,,,0.00,WUHU216HW,2016-08-26 08:01:00,
2016-08-26 02:06:00,48.2,44.3,30.17,North,0,0.0,0.0,86,0.00,,,0.00,WUHU216HW,2016-08-26 08:06:00,
2016-08-26 02:11:00,47.9,43.9,30.16,North,0,0.0,0.0,86,0.00,,,0.00,WUHU216HW,2016-08-26 08:11:00,
2016-08-26 02:16:00,47.9,43.9,30.16,North,0,0.0,0.0,86,0.00,,,0.00,WUHU216HW,2016-08-26 08:16:00,
2016-08-26 02:21:00,47.9,43.9,30.16,North,0,0.0,0.0,86,0.00,,,0.00,WUHU216HW,2016-08-26 08:21:00,
2016-08-26 02:26:00,48.2,44.3,30.16,North,0,0.0,0.0,86,0.00,,,0.00,WUHU216HW,2016-08-26 08:26:00,
2016-08-26 02:31:00,48.6,44.6,30.16,North,0,0.0,0.0,86,0.00,,,0.00,WUHU216HW,2016-08-26 08:31:00,
2016-08-26 02:36:00,48.6,44.6,30.16,North,0,0.0,0.0,86,0.00,,,0.00,WUHU216HW,2016-08-26 08:36:00,
2016-08-26 02:41:00,48.6,44.6,30.16,North,0,0.0,0.0,86,0.00,,,0.00,WUHU216HW,2016-08-26 08:41:00,
2016-08-26 02:46:00,49.0,44.9,30.16,North,0,0.0,0.0,86,0.00,,,0.00,WUHU216HW,2016-08-26 08:46:00,
2016-08-26 02:56:00,49.1,45.1,30.16,North,0,0.0,0.0,86,0.00,,,0.00,WUHU216HW,2016-08-26 08:56:00,
2016-08-26 03:01:00,49.3,45.3,30.16,North,0,0.0,0.0,86,0.00,,,0.00,WUHU216HW,2016-08-26 09:01:00,
2016-08-26 03:06:00,49.7,45.9,30.16,North,0,0.0,0.0,87,0.00,,,0.00,WUHU216HW,2016-08-26 09:06:00,
2016-08-26 03:11:00,49.9,46.1,30.16,North,0,0.0,0.0,87,0.00,,,0.00,WUHU216HW,2016-08-26 09:11:00,
2016-08-26 03:16:00,50.0,45.9,30.15,North,0,0.0,0.0,86,0.00,,,0.00,WUHU216HW,2016-08-26 09:16:00,
2016-08-26 03:21:00,50.0,45.9,30.15,North,0,0.0,0.0,86,0.00,,,0.00,WUHU216HW,2016-08-26 09:21:00,
2016-08-26 03:26:00,50.0,45.6,30.15,North,0,0.0,0.0,85,0.00,,,0.00,WUHU216HW,2016-08-26 09:26:00,
2016-08-26 03:36:00,49.9,45.5,30.14,North,0,0.0,0.0,85,0.00,,,0.00,WUHU216HW,2016-08-26 09:36:00,
2016-08-26 03:41:00,49.7,45.3,30.14,North,0,0.0,0.0,85,0.00,,,0.00,WUHU216HW,2016-08-26 09:41:00,
2016-08-26 03:46:00,49.5,45.1,30.14,North,0,0.0,0.0,85,0.00,,,0.00,WUHU216HW,2016-08-26 09:46:00,
2016-08-26 03:51:00,49.3,44.9,30.14,North,0,0.0,0.0,85,0.00,,,0.00,WUHU216HW,2016-08-26 09:51:00,
2016-08-26 03:56:00,49.0,44.7,30.13,North,0,0.0,0.0,85,0.00,,,0.00,WUHU216HW,2016-08-26 09:56:00,
2016-08-26 04:01:00,48.8,44.5,30.13,North,0,0.0,0.0,85,0.00,,,0.00,WUHU216HW,2016-08-26 10:01:00,
2016-08-26 04:11:00,48.6,44.6,30.13,North,0,0.0,0.0,86,0.00,,,0.00,WUHU216HW,2016-08-26 10:11:00,
2016-08-26 04:16:00,48.4,44.4,30.13,North,0,0.0,0.0,86,0.00,,,0.00,WUHU216HW,2016-08-26 10:16:00,
2016-08-26 04:21:00,47.9,43.9,30.13,North,0,0.0,0.0,86,0.00,,,0.00,WUHU216HW,2016-08-26 10:21:00,
2016-08-26 04:26:00,47.7,43.8,30.13,North,0,0.0,0.0,86,0.00,,,0.00,WUHU216HW,2016-08-26 10:26:00,
2016-08-26 04:31:00,47.5,43.6,30.13,North,0,0.0,0.0,86,0.00,,,0.00,WUHU216HW,2016-08-26 10:31:00,
2016-08-26 04:36:00,47.7,44.0,30.12,North,0,0.0,0.0,87,0.00,,,0.00,WUHU216HW,2016-08-26 10:36:00,
2016-08-26 04:41:00,47.9,44.6,30.12,North,0,0.0,0.0,88,0.00,,,0.00,WUHU216HW,2016-08-26 10:41:00,
2016-08-26 04:46:00,47.7,44.4,30.13,North,0,0.0,0.0,88,0.00,,,0.00,WUHU216HW,2016-08-26 10:46:00,
2016-08-26 04:51:00,47.5,44.2,30.13,North,0,0.0,0.0,88,0.00,,,0.00,WUHU216HW,2016-08-26 10:51:00,
2016-08-26 04:56:00,47.3,44.0,30.12,North,0,0.0,0.0,88,0.00,,,0.00,WUHU216HW,2016-08-26 10:56:00,
2016-08-26 05:01:00,47.5,44.2,30.12,North,0,0.0,0.0,88,0.00,,,0.00,WUHU216HW,2016-08-26 11:01:00,
2016-08-26 05:06:00,47.5,44.2,30.12,North,0,0.0,0.0,88,0.00,,,0.00,WUHU216HW,2016-08-26 11:06:00,
2016-08-26 05:11:00,47.3,44.0,30.12,North,0,0.0,0.0,88,0.00,,,0.00,WUHU216HW,2016-08-26 11:11:00,
2016-08-26 05:16:00,47.3,44.0,30.13,North,0,0.0,0.0,88,0.00,,,0.00,WUHU216HW,2016-08-26 11:16:00,
2016-08-26 05:21:00,47.7,44.6,30.13,North,0,0.0,0.0,89,0.00,,,0.00,WUHU216HW,2016-08-26 11:21:00,
2016-08-26 05:26:00,48.2,45.2,30.13,North,0,0.0,0.0,89,0.00,,,0.00,WUHU216HW,2016-08-26 11:26:00,
2016-08-26 05:31:00,48.6,45.5,30.12,North,0,0.0,0.0,89,0.00,,,0.00,WUHU216HW,2016-08-26 11:31:00,
2016-08-26 05:36:00,48.6,45.5,30.13,North,0,0.0,0.0,89,0.00,,,0.00,WUHU216HW,2016-08-26 11:36:00,
2016-08-26 05:41:00,48.6,45.5,30.12,North,0,0.0,0.0,89,0.00,,,0.00,WUHU216HW,2016-08-26 11:41:00,
2016-08-26 05:46:00,48.4,45.4,30.12,North,0,0.0,0.0,89,0.00,,,0.00,WUHU216HW,2016-08-26 11:46:00,
2016-08-26 05:51:00,48.4,45.4,30.12,North,0,0.0,0.0,89,0.00,,,0.00,WUHU216HW,2016-08-26 11:51:00,
2016-08-26 05:56:00,48.6,45.5,30.12,North,0,0.0,0.0,89,0.00,,,0.00,WUHU216HW,2016-08-26 11:56:00,
2016-08-26 06:01:00,48.8,45.7,30.12,North,0,0.0,0.0,89,0.00,,,0.00,WUHU216HW,2016-08-26 12:01:00,
2016-08-26 06:06:00,48.8,45.7,30.12,North,0,0.0,0.0,89,0.00,,,0.00,WUHU216HW,2016-08-26 12:06:00,
2016-08-26 06:11:00,48.8,45.7,30.12,North,0,0.0,0.0,89,0.00,,,0.00,WUHU216HW,2016-08-26 12:11:00,
2016-08-26 06:21:00,48.2,45.2,30.13,North,0,0.0,0.0,89,0.00,,,0.00,WUHU216HW,2016-08-26 12:21:00,
2016-08-26 06:26:00,47.9,44.8,30.13,North,0,0.0,0.0,89,0.00,,,0.00,WUHU216HW,2016-08-26 12:26:00,
2016-08-26 06:31:00,47.9,44.8,30.13,North,0,0.0,0.0,89,0.00,,,0.00,WUHU216HW,2016-08-26 12:31:00,
2016-08-26 06:36:00,48.1,45.0,30.13,North,0,0.0,0.0,89,0.00,,,0.00,WUHU216HW,2016-08-26 12:36:00,
2016-08-26 06:41:00,48.2,45.2,30.13,North,0,0.0,0.0,89,0.00,,,0.00,WUHU216HW,2016-08-26 12:41:00,
2016-08-26 06:46:00,48.2,45.2,30.13,North,0,0.0,0.0,89,0.00,,,0.00,WUHU216HW,2016-08-26 12:46:00,
2016-08-26 06:51:00,48.6,45.5,30.12,North,0,0.0,0.0,89,0.00,,,0.00,WUHU216HW,2016-08-26 12:51:00,
2016-08-26 06:56:00,48.6,45.5,30.12,North,0,0.0,0.0,89,0.00,,,0.00,WUHU216HW,2016-08-26 12:56:00,
2016-08-26 07:01:00,49.0,46.2,30.11,North,0,0.0,0.0,90,0.00,,,0.00,WUHU216HW,2016-08-26 13:01:00,
2016-08-26 07:06:00,49.1,46.1,30.12,North,0,0.0,0.0,89,0.00,,,0.00,WUHU216HW,2016-08-26 13:06:00,
2016-08-26 07:11:00,49.3,46.2,30.12,North,0,0.0,0.0,89,0.00,,,0.00,WUHU216HW,2016-08-26 13:11:00,
2016-08-26 07:16:00,49.7,46.5,30.12,North,0,0.0,0.0,89,0.00,,,0.00,WUHU216HW,2016-08-26 13:16:00,
2016-08-26 07:21:00,49.9,46.7,30.12,North,0,0.0,0.0,89,0.00,,,0.00,WUHU216HW,2016-08-26 13:21:00,
2016-08-26 07:26:00,50.0,46.9,30.13,North,0,0.0,0.0,89,0.00,,,0.00,WUHU216HW,2016-08-26 13:26:00,
2016-08-26 07:31:00,50.0,46.5,30.13,North,0,0.0,0.0,88,0.00,,,0.00,WUHU216HW,2016-08-26 13:31:00,
2016-08-26 07:36:00,50.2,46.7,30.13,North,0,0.0,0.0,88,0.00,,,0.00,WUHU216HW,2016-08-26 13:36:00,
2016-08-26 07:41:00,50.2,46.7,30.13,North,0,0.0,0.0,88,0.00,,,0.00,WUHU216HW,2016-08-26 13:41:00,
2016-08-26 07:46:00,50.4,46.9,30.13,North,0,0.0,0.0,88,0.00,,,0.00,WUHU216HW,2016-08-26 13:46:00,
2016-08-26 07:51:00,50.0,46.5,30.13,North,0,0.0,0.0,88,0.00,,,0.00,WUHU216HW,2016-08-26 13:51:00,
2016-08-26 07:57:00,49.9,46.4,30.13,North,0,0.0,0.0,88,0.00,,,0.00,WUHU216HW,2016-08-26 13:57:00,